Powrót do katalogu

DELTA 1 DEB

AktywnySSO
NORAD 37663·DEBRIS·🇺🇸 United States

Wystrzelony Mar 5, 1978 z Vandenberg Space Force Base

Loading…

Następne Przeloty (najbliższe 24 godziny)

TLE

ŚwieżeSource: Space-Track

Epoka: Sep 12, 2026, 19:43 UTC

1 37663U 78026KA  26255.82157762  .00000245  00000-0  13307-3 0  9994
2 37663  98.8640 291.7023 0037088 215.1334 144.7396 14.20931171216205

Śledź DELTA 1 DEB w czasie rzeczywistym z AllMySat

Download on the App Store